SBI7520 UTDD-ZMUB

Flight info

Callsign SBI7520
Flight time N/A
Altitude 37000
Route UTDD N0448F370 JD1A JD B350 VADER L138 TADOT L141 KAMUD A468 XKC B215 FKG G588 IM H84 SER IM ERDEN NOMIN BADAR UB14M RW14 ZMUB
Aircraft B738/M-SDGIWZ/S

Departure

Time 2026-05-06 11:17
Airport Dushanbe International Airport (UTDD)

Arrival

Time N/A
Airport Buyant-Ukhaa International Airport (ZMUB)
Time Latitude Longitude Altitude Speed Heading
2026-05-06 10:50 38.54756 68.81750 2584 ft 0 kts 269°
2026-05-06 11:12 38.54755 68.81718 2584 ft 6 kts 264°
2026-05-06 11:13 38.54705 68.81683 2584 ft 11 kts 179°
2026-05-06 11:13 38.54659 68.81608 2584 ft 15 kts 269°
2026-05-06 11:13 38.54649 68.81464 2584 ft 16 kts 259°
2026-05-06 11:13 38.54646 68.81309 2584 ft 18 kts 270°
2026-05-06 11:14 38.54647 68.81138 2584 ft 20 kts 270°
2026-05-06 11:14 38.54647 68.80943 2584 ft 23 kts 270°
2026-05-06 11:14 38.54647 68.80759 2584 ft 10 kts 263°
2026-05-06 11:14 38.54601 68.80720 2584 ft 8 kts 182°
2026-05-06 11:15 38.54545 68.80720 2584 ft 8 kts 180°
2026-05-06 11:15 38.54476 68.80720 2584 ft 11 kts 180°
2026-05-06 11:15 38.54392 68.80720 2584 ft 13 kts 180°
2026-05-06 11:15 38.54335 68.80791 2584 ft 16 kts 92°
2026-05-06 11:16 38.54335 68.81158 2584 ft 74 kts 90°
2026-05-06 11:16 38.54334 68.82099 2584 ft 136 kts 90°
2026-05-06 11:16 38.54332 68.83520 2602 ft 182 kts 90°
2026-05-06 11:16 38.54324 68.85223 2912 ft 199 kts 91°
2026-05-06 11:17 38.54297 68.87021 3470 ft 204 kts 91°
2026-05-06 11:17 38.54265 68.88769 4230 ft 197 kts 89°
2026-05-06 11:17 38.54289 68.90600 4383 ft 221 kts 89°
2026-05-06 11:17 38.54292 68.92696 4425 ft 248 kts 90°
2026-05-06 11:18 38.54289 68.94920 4416 ft 254 kts 90°
2026-05-06 11:18 38.54290 68.97221 4434 ft 266 kts 90°
2026-05-06 11:18 38.54290 68.99670 4418 ft 277 kts 90°
2026-05-06 11:18 38.54289 69.02115 4420 ft 275 kts 90°
2026-05-06 11:19 38.54274 69.04541 4419 ft 275 kts 93°
2026-05-06 11:19 38.53881 69.06979 4573 ft 290 kts 115°
2026-05-06 11:19 38.52714 69.08988 5559 ft 283 kts 137°
2026-05-06 11:19 38.51114 69.10443 6330 ft 287 kts 156°
2026-05-06 11:20 38.49213 69.10949 7112 ft 286 kts 181°
2026-05-06 11:20 38.47249 69.10889 7918 ft 287 kts 180°
2026-05-06 11:20 38.45241 69.10928 8568 ft 291 kts 179°
2026-05-06 11:20 38.43218 69.10951 9278 ft 292 kts 181°
2026-05-06 11:21 38.41185 69.10683 9914 ft 295 kts 193°
2026-05-06 11:21 38.39273 69.09758 10347 ft 305 kts 210°
2026-05-06 11:21 38.37522 69.08048 10422 ft 327 kts 226°
2026-05-06 11:21 38.36103 69.05728 10555 ft 345 kts 240°
2026-05-06 11:22 38.35292 69.02827 10865 ft 355 kts 262°
2026-05-06 11:22 38.35169 68.99672 11478 ft 357 kts 270°
2026-05-06 11:22 38.35186 68.96509 11891 ft 364 kts 272°
2026-05-06 11:22 38.35484 68.93303 12493 ft 364 kts 284°
2026-05-06 11:23 38.36548 68.90388 12946 ft 368 kts 308°
2026-05-06 11:23 38.38289 68.88079 13733 ft 362 kts 317°
2026-05-06 11:23 38.40310 68.86105 13950 ft 373 kts 333°
2026-05-06 11:23 38.42752 68.85231 14541 ft 372 kts 356°
2026-05-06 11:24 38.45360 68.85286 14946 ft 377 kts
2026-05-06 11:24 38.47939 68.85845 15337 ft 382 kts 19°
2026-05-06 11:24 38.50226 68.87535 15814 ft 386 kts 40°
2026-05-06 11:24 38.52071 68.90018 16250 ft 390 kts 49°
2026-05-06 11:25 38.53622 68.92920 16368 ft 402 kts 65°
2026-05-06 11:25 38.54258 68.96347 16907 ft 400 kts 88°
2026-05-06 11:25 38.54207 68.99917 17257 ft 404 kts 92°
2026-05-06 11:25 38.54204 69.03484 17639 ft 406 kts 89°
2026-05-06 11:26 38.54269 69.07104 18083 ft 407 kts 90°
2026-05-06 11:26 38.54308 69.10730 18480 ft 408 kts 91°
2026-05-06 11:26 38.54326 69.14320 18865 ft 409 kts 91°
2026-05-06 11:26 38.54342 69.17944 19007 ft 414 kts 91°
2026-05-06 11:27 38.54358 69.21616 19022 ft 413 kts 91°
2026-05-06 11:27 38.54371 69.25265 19021 ft 410 kts 91°
2026-05-06 11:27 38.54586 69.28890 19011 ft 411 kts 78°
2026-05-06 11:27 38.55615 69.32336 19065 ft 416 kts 62°
2026-05-06 11:28 38.57079 69.35452 19508 ft 415 kts 56°
2026-05-06 11:28 38.58830 69.38470 19663 ft 422 kts 51°
2026-05-06 11:28 38.60666 69.41376 20085 ft 421 kts 51°
2026-05-06 11:28 38.62495 69.44327 20265 ft 427 kts 52°
2026-05-06 11:29 38.64322 69.47304 20644 ft 427 kts 52°
2026-05-06 11:29 38.66143 69.50258 20882 ft 430 kts 52°
2026-05-06 11:29 38.68011 69.53281 21170 ft 432 kts 51°
2026-05-06 11:29 38.69865 69.56284 21444 ft 434 kts 51°
2026-05-06 11:30 38.71728 69.59300 21711 ft 436 kts 51°
2026-05-06 11:30 38.73605 69.62343 21974 ft 438 kts 51°
2026-05-06 11:30 38.75494 69.65405 22222 ft 440 kts 52°
2026-05-06 11:30 38.77395 69.68491 22480 ft 441 kts 52°
2026-05-06 11:31 38.79305 69.71591 22716 ft 443 kts 52°
2026-05-06 11:31 38.81205 69.74680 22958 ft 445 kts 52°
2026-05-06 11:31 38.83135 69.77819 23193 ft 447 kts 52°
2026-05-06 11:31 38.85056 69.80946 23416 ft 448 kts 52°
2026-05-06 11:32 38.86976 69.84074 23627 ft 450 kts 52°
2026-05-06 11:32 38.88906 69.87221 23850 ft 452 kts 52°
2026-05-06 11:32 38.90845 69.90388 24054 ft 453 kts 52°
2026-05-06 11:32 38.92805 69.93591 24261 ft 455 kts 52°
2026-05-06 11:33 38.94745 69.96765 24456 ft 457 kts 52°
2026-05-06 11:33 38.96715 69.99992 24653 ft 458 kts 52°
2026-05-06 11:33 38.98671 70.03197 24845 ft 460 kts 52°
2026-05-06 11:33 39.00631 70.06413 25044 ft 461 kts 52°
2026-05-06 11:34 39.02614 70.09669 25228 ft 462 kts 52°
2026-05-06 11:34 39.04582 70.12905 25400 ft 464 kts 52°
2026-05-06 11:34 39.06567 70.16172 25569 ft 466 kts 52°
2026-05-06 11:34 39.08578 70.19486 25785 ft 466 kts 52°
2026-05-06 11:35 39.10553 70.22742 25973 ft 467 kts 52°
2026-05-06 11:35 39.12568 70.26068 26131 ft 468 kts 52°
2026-05-06 11:35 39.14542 70.29330 26300 ft 469 kts 52°
2026-05-06 11:35 39.16547 70.32645 26466 ft 470 kts 52°
2026-05-06 11:36 39.18552 70.35965 26618 ft 472 kts 52°
2026-05-06 11:36 39.20569 70.39308 26776 ft 473 kts 52°
2026-05-06 11:36 39.22595 70.42670 26926 ft 474 kts 52°
2026-05-06 11:36 39.24603 70.46006 27074 ft 475 kts 52°
2026-05-06 11:37 39.26660 70.49378 27219 ft 476 kts 50°
2026-05-06 11:37 39.28721 70.52642 27361 ft 477 kts 50°
2026-05-06 11:37 39.30826 70.55950 27486 ft 478 kts 50°
2026-05-06 11:37 39.32940 70.59297 27630 ft 479 kts 50°
2026-05-06 11:38 39.35019 70.62604 27781 ft 480 kts 50°
2026-05-06 11:38 39.37118 70.65949 27883 ft 481 kts 50°
2026-05-06 11:38 39.39224 70.69305 28032 ft 482 kts 50°
2026-05-06 11:38 39.41337 70.72678 28135 ft 483 kts 50°
2026-05-06 11:39 39.43415 70.76099 28241 ft 484 kts 53°
2026-05-06 11:39 39.45259 70.79705 28359 ft 485 kts 59°
2026-05-06 11:39 39.46929 70.83490 28500 ft 485 kts 60°
2026-05-06 11:39 39.48586 70.87318 28630 ft 486 kts 60°
2026-05-06 11:40 39.50247 70.91098 28721 ft 487 kts 60°
2026-05-06 11:40 39.51919 70.94901 28857 ft 487 kts 60°
2026-05-06 11:40 39.53572 70.98695 28979 ft 487 kts 60°
2026-05-06 11:41 39.56876 71.06335 29175 ft 488 kts 60°
2026-05-06 11:41 39.58527 71.10167 29305 ft 488 kts 60°
2026-05-06 11:41 39.60196 71.14047 29366 ft 490 kts 60°
2026-05-06 11:41 39.61830 71.17855 29489 ft 490 kts 60°
2026-05-06 11:42 39.63493 71.21734 29629 ft 489 kts 60°
2026-05-06 11:42 39.65127 71.25556 29733 ft 489 kts 60°
2026-05-06 11:42 39.66777 71.29423 29875 ft 489 kts 60°
2026-05-06 11:42 39.68464 71.33224 30054 ft 487 kts 58°
2026-05-06 11:43 39.70255 71.36955 30189 ft 487 kts 57°
2026-05-06 11:43 39.73852 71.44392 30422 ft 487 kts 57°
2026-05-06 11:44 39.77374 71.51855 30636 ft 487 kts 57°
2026-05-06 11:44 39.79143 71.55598 30779 ft 486 kts 57°
2026-05-06 11:44 39.80914 71.59347 30892 ft 486 kts 57°
2026-05-06 11:44 39.82668 71.63075 30982 ft 487 kts 57°
2026-05-06 11:45 39.84426 71.66813 31157 ft 485 kts 57°
2026-05-06 11:45 39.86182 71.70552 31304 ft 484 kts 58°
2026-05-06 11:45 39.89696 71.77997 31489 ft 484 kts 57°
2026-05-06 11:46 39.91465 71.81728 31598 ft 484 kts 57°
2026-05-06 11:46 39.93217 71.85444 31672 ft 484 kts 57°
2026-05-06 11:46 39.96703 71.92924 31841 ft 485 kts 57°
2026-05-06 11:47 39.98447 71.96681 31958 ft 484 kts 57°
2026-05-06 11:47 40.00166 72.00389 32127 ft 482 kts 57°
2026-05-06 11:47 40.01897 72.04115 32231 ft 482 kts 57°
2026-05-06 11:47 40.03635 72.07839 32328 ft 482 kts 57°
2026-05-06 11:48 40.05382 72.11577 32458 ft 481 kts 57°
2026-05-06 11:48 40.07120 72.15296 32531 ft 481 kts 57°
2026-05-06 11:48 40.10580 72.22749 32718 ft 481 kts 57°
2026-05-06 11:49 40.13998 72.30212 32902 ft 481 kts 57°
2026-05-06 11:49 40.17459 72.37697 33073 ft 480 kts 56°
2026-05-06 11:50 40.20886 72.45119 33242 ft 480 kts 57°
2026-05-06 11:50 40.24297 72.52606 33401 ft 480 kts 57°
2026-05-06 11:51 40.26000 72.56356 33533 ft 478 kts 57°
2026-05-06 11:51 40.27681 72.60109 33712 ft 476 kts 58°
2026-05-06 11:51 40.30575 72.67873 33881 ft 477 kts 64°
2026-05-06 11:52 40.33384 72.75726 34013 ft 477 kts 63°
2026-05-06 11:52 40.36234 72.83520 34174 ft 476 kts 63°
2026-05-06 11:53 40.39060 72.91318 34328 ft 475 kts 63°
2026-05-06 11:53 40.41859 72.99168 34460 ft 475 kts 63°
2026-05-06 11:54 40.44676 73.06983 34600 ft 475 kts 63°
2026-05-06 11:54 40.47489 73.14764 34750 ft 474 kts 63°
2026-05-06 11:55 40.50286 73.22609 34905 ft 473 kts 64°
2026-05-06 11:55 40.53047 73.30417 35036 ft 472 kts 64°
2026-05-06 11:56 40.55801 73.38220 35181 ft 471 kts 64°
2026-05-06 11:56 40.58565 73.46010 35321 ft 471 kts 63°
2026-05-06 11:57 40.61340 73.53745 35461 ft 470 kts 63°
2026-05-06 11:57 40.64111 73.61529 35591 ft 469 kts 63°
2026-05-06 11:58 40.66845 73.69321 35728 ft 468 kts 64°
2026-05-06 11:58 40.69542 73.77089 35861 ft 467 kts 64°
2026-05-06 11:59 40.72250 73.84832 36008 ft 466 kts 64°
2026-05-06 11:59 40.74968 73.92535 36130 ft 465 kts 64°
2026-05-06 12:00 40.77646 74.00223 36258 ft 464 kts 64°
2026-05-06 12:00 40.80308 74.07939 36384 ft 463 kts 64°
2026-05-06 12:01 40.82962 74.15650 36497 ft 462 kts 64°
2026-05-06 12:01 40.85607 74.23354 36611 ft 462 kts 64°
2026-05-06 12:02 40.88267 74.31093 36725 ft 461 kts 64°
2026-05-06 12:02 40.90899 74.38769 36844 ft 460 kts 64°
2026-05-06 12:03 40.93516 74.46400 36957 ft 459 kts 64°
2026-05-06 12:03 40.94843 74.50243 37065 ft 457 kts 64°
2026-05-06 12:03 40.96161 74.54071 37068 ft 458 kts 64°
2026-05-06 12:04 40.98792 74.61739 37074 ft 460 kts 64°
2026-05-06 12:04 41.01391 74.69426 37089 ft 461 kts 65°
2026-05-06 12:05 41.03983 74.77171 37115 ft 462 kts 65°
2026-05-06 12:05 41.06583 74.84906 37141 ft 462 kts 65°
2026-05-06 12:06 41.09420 74.92530 37144 ft 463 kts 58°
2026-05-06 12:06 41.12647 74.99918 37120 ft 465 kts 59°
2026-05-06 12:07 41.15790 75.07452 37088 ft 467 kts 59°
2026-05-06 12:07 41.18891 75.14938 37074 ft 468 kts 59°
2026-05-06 12:08 41.22037 75.22548 37072 ft 469 kts 59°
2026-05-06 12:08 41.25149 75.30106 37074 ft 470 kts 59°
2026-05-06 12:09 41.28299 75.37731 37143 ft 469 kts 59°
2026-05-06 12:09 41.31435 75.45275 37205 ft 469 kts 59°
2026-05-06 12:10 41.34574 75.52883 37240 ft 469 kts 59°
2026-05-06 12:10 41.37664 75.60461 37262 ft 470 kts 59°
2026-05-06 12:11 41.40743 75.68105 37262 ft 471 kts 63°
2026-05-06 12:11 41.42884 75.76326 37264 ft 473 kts 80°
2026-05-06 12:12 41.43423 75.85038 37264 ft 474 kts 86°
2026-05-06 12:12 41.43950 75.93780 37264 ft 474 kts 85°
2026-05-06 12:13 41.44514 76.02563 37262 ft 474 kts 85°
2026-05-06 12:13 41.45025 76.11302 37263 ft 475 kts 85°
2026-05-06 12:14 41.45525 76.20019 37263 ft 474 kts 85°
2026-05-06 12:14 41.45940 76.28752 37263 ft 474 kts 86°
2026-05-06 12:15 41.46373 76.37542 37263 ft 475 kts 85°
2026-05-06 12:15 41.46880 76.46257 37263 ft 474 kts 85°
2026-05-06 12:16 41.47363 76.55018 37263 ft 473 kts 85°
2026-05-06 12:16 41.47816 76.63761 37263 ft 475 kts 85°
2026-05-06 12:17 41.48244 76.72498 37264 ft 474 kts 86°
2026-05-06 12:17 41.48690 76.81287 37263 ft 475 kts 86°
2026-05-06 12:18 41.49126 76.90011 37262 ft 475 kts 86°
2026-05-06 12:18 41.49544 76.98786 37263 ft 473 kts 85°
2026-05-06 12:19 41.49940 77.07507 37263 ft 472 kts 86°
2026-05-06 12:19 41.50243 77.16256 37264 ft 472 kts 86°
2026-05-06 12:20 41.50606 77.24985 37263 ft 473 kts 85°
2026-05-06 12:20 41.50977 77.33712 37262 ft 473 kts 85°
2026-05-06 12:21 41.51347 77.42392 37262 ft 472 kts 85°
2026-05-06 12:21 41.51720 77.51152 37263 ft 473 kts 85°
2026-05-06 12:22 41.52126 77.59874 37262 ft 473 kts 85°
2026-05-06 12:22 41.52535 77.68599 37264 ft 473 kts 86°
2026-05-06 12:23 41.52924 77.77351 37264 ft 473 kts 86°
2026-05-06 12:23 41.53299 77.86110 37261 ft 472 kts 86°
2026-05-06 12:24 41.53666 77.94798 37263 ft 473 kts 86°
2026-05-06 12:24 41.54000 78.03559 37263 ft 473 kts 86°
2026-05-06 12:25 41.54323 78.12330 37262 ft 473 kts 86°
2026-05-06 12:25 41.54642 78.21007 37264 ft 472 kts 86°
2026-05-06 12:26 41.54973 78.29736 37262 ft 472 kts 86°
2026-05-06 12:26 41.55278 78.38497 37263 ft 472 kts 86°
2026-05-06 12:27 41.55528 78.47237 37264 ft 472 kts 87°
2026-05-06 12:27 41.55765 78.55948 37262 ft 473 kts 86°
2026-05-06 12:28 41.56039 78.64680 37264 ft 473 kts 86°
2026-05-06 12:28 41.56308 78.73447 37263 ft 471 kts 87°
2026-05-06 12:29 41.56562 78.82143 37262 ft 472 kts 87°
2026-05-06 12:29 41.56894 78.90889 37262 ft 472 kts 85°
2026-05-06 12:30 41.57339 78.99634 37263 ft 473 kts 85°
2026-05-06 12:30 41.57762 79.08361 37261 ft 471 kts 85°
2026-05-06 12:31 41.58160 79.17024 37264 ft 470 kts 85°
2026-05-06 12:31 41.58550 79.25723 37262 ft 468 kts 85°
2026-05-06 12:32 41.58915 79.34383 37262 ft 469 kts 85°
2026-05-06 12:32 41.59257 79.43038 37263 ft 470 kts 85°
2026-05-06 12:33 41.59589 79.51748 37263 ft 470 kts 85°
2026-05-06 12:33 41.59932 79.60468 37262 ft 469 kts 85°
2026-05-06 12:34 41.60239 79.69106 37260 ft 469 kts 86°
2026-05-06 12:34 41.60489 79.77823 37258 ft 470 kts 86°
2026-05-06 12:35 41.60754 79.86503 37254 ft 469 kts 86°
2026-05-06 12:35 41.61015 79.95187 37235 ft 470 kts 86°
2026-05-06 12:36 41.61318 80.03861 37160 ft 470 kts 85°
2026-05-06 12:36 41.61673 80.12548 37088 ft 470 kts 85°
2026-05-06 12:37 41.62006 80.21265 37048 ft 468 kts 85°
2026-05-06 12:37 41.62317 80.29919 37047 ft 468 kts 85°
2026-05-06 12:38 41.62599 80.38627 37048 ft 469 kts 86°
2026-05-06 12:38 41.62878 80.47292 37045 ft 469 kts 85°
2026-05-06 12:39 41.63145 80.55986 37046 ft 469 kts 86°
2026-05-06 12:39 41.63409 80.64698 37046 ft 470 kts 85°
2026-05-06 12:40 41.63676 80.73417 37046 ft 469 kts 86°
2026-05-06 12:40 41.63904 80.82056 37047 ft 469 kts 86°
2026-05-06 12:41 41.64130 80.90750 37046 ft 470 kts 86°
2026-05-06 12:41 41.64365 80.99460 37046 ft 471 kts 85°
2026-05-06 12:42 41.64582 81.08164 37047 ft 468 kts 85°
2026-05-06 12:42 41.64798 81.16821 37045 ft 465 kts 84°
2026-05-06 12:43 41.64996 81.25452 37048 ft 467 kts 84°
2026-05-06 12:43 41.65187 81.34124 37046 ft 468 kts 84°
2026-05-06 12:44 41.65391 81.42803 37046 ft 467 kts 84°
2026-05-06 12:44 41.65588 81.51430 37047 ft 467 kts 84°
2026-05-06 12:45 41.65728 81.60129 37048 ft 468 kts 85°
2026-05-06 12:46 41.65940 81.73159 37046 ft 468 kts 85°
2026-05-06 12:46 41.66091 81.81802 37047 ft 467 kts 85°
2026-05-06 12:47 41.66245 81.90480 37046 ft 468 kts 85°
2026-05-06 12:47 41.66401 81.99116 37047 ft 468 kts 85°
2026-05-06 12:48 41.66549 82.07836 37046 ft 467 kts 85°
2026-05-06 12:48 41.66680 82.16478 37046 ft 467 kts 85°
2026-05-06 12:49 41.66818 82.25103 37047 ft 467 kts 85°
2026-05-06 12:49 41.66949 82.33806 37046 ft 468 kts 85°
2026-05-06 12:50 41.67078 82.42465 37048 ft 468 kts 85°
2026-05-06 12:50 41.67203 82.51202 37045 ft 467 kts 85°
2026-05-06 12:51 41.67347 82.59824 37054 ft 466 kts 84°
2026-05-06 12:51 41.67503 82.68517 37073 ft 467 kts 85°
2026-05-06 12:52 41.67632 82.77175 37093 ft 467 kts 84°
2026-05-06 12:52 41.68638 82.85578 37099 ft 455 kts 64°
2026-05-06 12:52 41.70090 82.89288 37113 ft 448 kts 53°
2026-05-06 12:53 41.71783 82.92779 37098 ft 449 kts 53°
2026-05-06 12:53 41.75073 82.99912 37099 ft 451 kts 54°
2026-05-06 12:54 41.78338 83.07023 37101 ft 450 kts 54°
2026-05-06 12:54 41.81644 83.14111 37100 ft 450 kts 53°
2026-05-06 12:55 41.84954 83.21219 37102 ft 450 kts 54°
2026-05-06 12:55 41.88232 83.28371 37100 ft 450 kts 54°
2026-05-06 12:56 41.91512 83.35465 37102 ft 451 kts 54°
2026-05-06 12:56 41.94812 83.42603 37100 ft 451 kts 54°
2026-05-06 12:57 41.98082 83.49773 37101 ft 450 kts 54°
2026-05-06 12:57 42.01345 83.56918 37101 ft 451 kts 54°
2026-05-06 12:58 42.04638 83.64117 37100 ft 451 kts 54°
2026-05-06 12:58 42.07918 83.71296 37101 ft 451 kts 54°
2026-05-06 12:59 42.11174 83.78462 37101 ft 451 kts 54°
2026-05-06 12:59 42.14443 83.85654 37102 ft 451 kts 54°
2026-05-06 13:00 42.17720 83.92793 37102 ft 451 kts 54°
2026-05-06 13:00 42.21015 83.99977 37101 ft 451 kts 54°
2026-05-06 13:01 42.24459 84.06934 37100 ft 448 kts 51°
2026-05-06 13:01 42.28009 84.13824 37101 ft 448 kts 51°
2026-05-06 13:02 42.31528 84.20784 37102 ft 448 kts 51°
2026-05-06 13:02 42.35023 84.27683 37101 ft 448 kts 51°
2026-05-06 13:03 42.38540 84.34647 37101 ft 448 kts 51°
2026-05-06 13:03 42.42023 84.41598 37101 ft 449 kts 51°
2026-05-06 13:04 42.45514 84.48612 37100 ft 449 kts 51°
2026-05-06 13:04 42.48990 84.55546 37102 ft 449 kts 51°
2026-05-06 13:05 42.52512 84.62529 37101 ft 449 kts 51°
2026-05-06 13:05 42.56039 84.69521 37101 ft 449 kts 52°
2026-05-06 13:06 42.59495 84.76519 37101 ft 450 kts 52°
2026-05-06 13:06 42.62954 84.83545 37101 ft 449 kts 52°
2026-05-06 13:07 42.66430 84.90595 37101 ft 450 kts 52°
2026-05-06 13:07 42.69886 84.97604 37101 ft 449 kts 52°
2026-05-06 13:08 42.73358 85.04652 37101 ft 450 kts 52°
2026-05-06 13:08 42.76858 85.11723 37101 ft 453 kts 52°
2026-05-06 13:09 42.80365 85.18804 37100 ft 456 kts 53°
2026-05-06 13:09 42.83900 85.26009 37100 ft 458 kts 53°
2026-05-06 13:10 42.87429 85.33265 37101 ft 461 kts 53°
2026-05-06 13:10 42.90942 85.40523 37102 ft 461 kts 53°
2026-05-06 13:11 42.94466 85.47778 37100 ft 460 kts 53°
2026-05-06 13:11 42.97983 85.54990 37101 ft 458 kts 53°
2026-05-06 13:12 43.01477 85.62286 37099 ft 458 kts 53°
2026-05-06 13:12 43.04980 85.69520 37101 ft 457 kts 53°
2026-05-06 13:13 43.08475 85.76763 37102 ft 458 kts 54°
2026-05-06 13:13 43.11949 85.84054 37101 ft 459 kts 54°
2026-05-06 13:14 43.15417 85.91293 37100 ft 457 kts 53°
2026-05-06 13:14 43.18922 85.98541 37101 ft 457 kts 53°
2026-05-06 13:15 43.22387 86.05788 37101 ft 459 kts 53°
2026-05-06 13:15 43.25901 86.13109 37101 ft 458 kts 53°
2026-05-06 13:16 43.29398 86.20337 37102 ft 456 kts 53°
2026-05-06 13:16 43.32922 86.27578 37100 ft 457 kts 53°
2026-05-06 13:17 43.36441 86.34778 37100 ft 456 kts 53°
2026-05-06 13:17 43.39954 86.41983 37101 ft 456 kts 52°
2026-05-06 13:18 43.43474 86.49221 37102 ft 457 kts 53°
2026-05-06 13:18 43.46995 86.56512 37101 ft 457 kts 52°
2026-05-06 13:19 43.50531 86.63744 37101 ft 456 kts 52°
2026-05-06 13:19 43.54066 86.71001 37101 ft 457 kts 53°
2026-05-06 13:20 43.57533 86.78289 37100 ft 457 kts 54°
2026-05-06 13:20 43.60961 86.85620 37101 ft 457 kts 54°
2026-05-06 13:21 43.64431 86.92996 37101 ft 458 kts 54°
2026-05-06 13:21 43.67895 87.00378 37101 ft 460 kts 54°
2026-05-06 13:22 43.71355 87.07739 37101 ft 461 kts 54°
2026-05-06 13:22 43.74863 87.15175 37101 ft 463 kts 54°
2026-05-06 13:23 43.78343 87.22603 37101 ft 462 kts 54°
2026-05-06 13:23 43.81808 87.30052 37101 ft 462 kts 54°
2026-05-06 13:24 43.85284 87.37534 37101 ft 461 kts 54°
2026-05-06 13:24 43.88750 87.44962 37102 ft 463 kts 54°
2026-05-06 13:25 43.92255 87.52477 37100 ft 462 kts 52°
2026-05-06 13:25 43.96098 87.59466 37101 ft 459 kts 48°
2026-05-06 13:26 44.00013 87.66493 37100 ft 460 kts 50°
2026-05-06 13:26 44.03860 87.73578 37100 ft 461 kts 50°
2026-05-06 13:27 44.07726 87.80627 37100 ft 461 kts 50°
2026-05-06 13:27 44.11577 87.87711 37100 ft 460 kts 50°
2026-05-06 13:28 44.15449 87.94750 37096 ft 459 kts 45°
2026-05-06 13:28 44.17741 87.97744 37102 ft 453 kts 33°
2026-05-06 13:28 44.20426 87.99999 37104 ft 448 kts 21°
2026-05-06 13:29 44.26181 88.03278 37099 ft 448 kts 19°
2026-05-06 13:29 44.31873 88.06644 37101 ft 447 kts 19°
2026-05-06 13:30 44.37574 88.09998 37101 ft 446 kts 19°
2026-05-06 13:30 44.43271 88.13328 37100 ft 447 kts 19°
2026-05-06 13:31 44.48986 88.16685 37100 ft 448 kts 19°
2026-05-06 13:31 44.54690 88.20018 37102 ft 447 kts 19°
2026-05-06 13:32 44.60435 88.23367 37101 ft 446 kts 18°
2026-05-06 13:32 44.66156 88.26666 37101 ft 446 kts 18°
2026-05-06 13:33 44.71879 88.29986 37101 ft 447 kts 19°
2026-05-06 13:33 44.77564 88.33305 37101 ft 446 kts 19°
2026-05-06 13:34 44.83277 88.36655 37101 ft 446 kts 18°
2026-05-06 13:34 44.89008 88.39946 37101 ft 446 kts 18°
2026-05-06 13:35 44.94741 88.43267 37101 ft 446 kts 19°
2026-05-06 13:35 45.00413 88.46617 37100 ft 446 kts 18°
2026-05-06 13:36 45.06127 88.49950 37101 ft 445 kts 18°
2026-05-06 13:36 45.11833 88.53277 37101 ft 443 kts 17°
2026-05-06 13:37 45.17504 88.56604 37101 ft 443 kts 17°
2026-05-06 13:37 45.23141 88.59917 37101 ft 442 kts 17°
2026-05-06 13:38 45.28808 88.63255 37101 ft 443 kts 17°
2026-05-06 13:38 45.34484 88.66607 37101 ft 444 kts 18°
2026-05-06 13:39 45.40172 88.69974 37101 ft 444 kts 18°
2026-05-06 13:39 45.45858 88.73348 37101 ft 444 kts 18°
2026-05-06 13:40 45.51529 88.76720 37100 ft 443 kts 18°
2026-05-06 13:40 45.57201 88.80099 37101 ft 443 kts 18°
2026-05-06 13:41 45.62841 88.83466 37101 ft 443 kts 18°
2026-05-06 13:41 45.68504 88.86855 37100 ft 443 kts 18°
2026-05-06 13:42 45.74178 88.90260 37101 ft 442 kts 18°
2026-05-06 13:42 45.79802 88.93658 37101 ft 442 kts 18°
2026-05-06 13:43 45.85466 88.97092 37101 ft 442 kts 18°
2026-05-06 13:43 45.91115 89.00514 37101 ft 442 kts 17°
2026-05-06 13:44 45.96755 89.03878 37101 ft 442 kts 17°
2026-05-06 13:44 46.02424 89.07235 37101 ft 441 kts 17°
2026-05-06 13:45 46.08051 89.10551 37102 ft 442 kts 17°
2026-05-06 13:45 46.16539 89.15578 37101 ft 441 kts 17°
2026-05-06 13:46 46.22204 89.18980 37101 ft 441 kts 17°
2026-05-06 13:46 46.27847 89.22376 37101 ft 441 kts 17°
2026-05-06 13:47 46.33483 89.25816 37101 ft 442 kts 17°
2026-05-06 13:47 46.39105 89.29276 37100 ft 440 kts 17°
2026-05-06 13:48 46.44717 89.32725 37101 ft 442 kts 17°
2026-05-06 13:48 46.50368 89.36151 37100 ft 441 kts 17°
2026-05-06 13:49 46.56006 89.39559 37100 ft 440 kts 17°
2026-05-06 13:49 46.61655 89.42998 37100 ft 441 kts 17°
2026-05-06 13:50 46.67287 89.46430 37100 ft 441 kts 17°
2026-05-06 13:50 46.72914 89.49876 37101 ft 441 kts 17°
2026-05-06 13:51 46.78427 89.53889 37103 ft 448 kts 27°
2026-05-06 13:51 46.83292 89.59605 37102 ft 457 kts 39°
2026-05-06 13:52 46.87763 89.66216 37100 ft 457 kts 40°
2026-05-06 13:52 46.92256 89.72653 37102 ft 456 kts 40°
2026-05-06 13:53 46.96733 89.79153 37101 ft 453 kts 40°
2026-05-06 13:53 47.01182 89.85641 37102 ft 452 kts 41°
2026-05-06 13:54 47.05582 89.92191 37102 ft 451 kts 42°
2026-05-06 13:54 47.09937 89.98667 37101 ft 450 kts 41°
2026-05-06 13:55 47.14366 90.05163 37100 ft 451 kts 41°
2026-05-06 13:55 47.18794 90.11667 37127 ft 449 kts 41°
2026-05-06 13:56 47.23170 90.18141 37128 ft 450 kts 41°
2026-05-06 13:56 47.27568 90.24683 37128 ft 451 kts 41°
2026-05-06 13:57 47.31908 90.31248 37128 ft 450 kts 42°
2026-05-06 13:57 47.36302 90.37852 37129 ft 451 kts 41°
2026-05-06 13:58 47.40640 90.44472 37126 ft 453 kts 46°
2026-05-06 13:58 47.44297 90.52051 37128 ft 455 kts 53°
2026-05-06 13:59 47.47763 90.59819 37128 ft 455 kts 52°
2026-05-06 13:59 47.51277 90.67567 37128 ft 456 kts 53°
2026-05-06 14:00 47.54785 90.75384 37129 ft 456 kts 53°
2026-05-06 14:00 47.58265 90.83178 37126 ft 456 kts 53°
2026-05-06 14:01 47.61722 90.91020 37128 ft 456 kts 53°
2026-05-06 14:01 47.65187 90.98878 37128 ft 456 kts 53°
2026-05-06 14:02 47.68645 91.06757 37129 ft 455 kts 53°
2026-05-06 14:02 47.72064 91.14591 37128 ft 455 kts 53°
2026-05-06 14:03 47.75459 91.22482 37129 ft 455 kts 53°
2026-05-06 14:03 47.78869 91.30445 37127 ft 455 kts 53°